Time,TemperatureF,DewpointF,PressureIn,WindDirection,WindDirectionDegrees,WindSpeedMPH,WindSpeedGustMPH,Humidity,HourlyPrecipIn,Conditions,Clouds,dailyrainin,SoftwareType,DateUTC
2013-01-08 00:03:00,47.0,42.1,30.46,WSW,248,0.4,2.9,83,0.00,,,0.00,WUHU216HW,2013-01-08 08:03:00,
2013-01-08 00:08:00,47.0,42.1,30.46,SW,225,1.1,3.6,83,0.00,,,0.00,WUHU216HW,2013-01-08 08:08:00,
2013-01-08 00:13:00,47.0,42.1,30.47,SSW,203,1.3,3.6,83,0.00,,,0.00,WUHU216HW,2013-01-08 08:13:00,
2013-01-08 00:18:00,47.0,42.1,30.47,SW,225,1.1,3.6,83,0.00,,,0.00,WUHU216HW,2013-01-08 08:18:00,
2013-01-08 00:23:00,47.0,42.1,30.46,SSW,203,2.2,2.2,83,0.00,,,0.00,WUHU216HW,2013-01-08 08:23:00,
2013-01-08 00:28:00,47.0,42.1,30.46,SSW,203,0.0,2.5,83,0.00,,,0.00,WUHU216HW,2013-01-08 08:28:00,
2013-01-08 00:33:00,47.0,42.1,30.46,SSW,203,0.4,2.5,83,0.00,,,0.00,WUHU216HW,2013-01-08 08:33:00,
2013-01-08 00:38:00,47.0,42.1,30.46,SE,135,0.4,1.8,83,0.00,,,0.00,WUHU216HW,2013-01-08 08:38:00,
2013-01-08 00:43:00,47.0,42.1,30.46,SSE,158,0.0,2.5,83,0.00,,,0.00,WUHU216HW,2013-01-08 08:43:00,
2013-01-08 00:48:00,47.0,42.1,30.46,SE,135,0.0,2.5,83,0.00,,,0.00,WUHU216HW,2013-01-08 08:48:00,
2013-01-08 00:53:00,47.0,42.1,30.46,SSW,203,1.3,2.2,83,0.00,,,0.00,WUHU216HW,2013-01-08 08:53:00,
2013-01-08 00:58:00,47.0,42.1,30.46,SSE,158,0.9,2.2,83,0.00,,,0.00,WUHU216HW,2013-01-08 08:58:00,
2013-01-08 01:03:00,47.0,42.1,30.46,SSE,158,0.0,2.0,83,0.00,,,0.00,WUHU216HW,2013-01-08 09:03:00,
2013-01-08 01:08:00,47.0,42.1,30.46,South,180,2.2,4.0,83,0.00,,,0.00,WUHU216HW,2013-01-08 09:08:00,
2013-01-08 01:13:00,46.8,42.0,30.46,SSW,203,2.7,4.0,83,0.00,,,0.00,WUHU216HW,2013-01-08 09:13:00,
2013-01-08 01:18:00,47.0,42.1,30.46,SSE,158,3.4,3.4,83,0.00,,,0.00,WUHU216HW,2013-01-08 09:18:00,
2013-01-08 01:23:00,47.0,42.1,30.46,SSW,203,1.8,3.4,83,0.00,,,0.00,WUHU216HW,2013-01-08 09:23:00,
2013-01-08 01:28:00,47.0,41.8,30.46,SW,225,5.8,6.9,82,0.00,,,0.00,WUHU216HW,2013-01-08 09:28:00,
2013-01-08 01:33:00,47.0,42.1,30.46,ESE,113,0.4,6.9,83,0.00,,,0.00,WUHU216HW,2013-01-08 09:33:00,
2013-01-08 01:38:00,46.8,42.0,30.45,SSW,203,1.6,1.8,83,0.00,,,0.00,WUHU216HW,2013-01-08 09:38:00,
2013-01-08 01:43:00,46.8,42.0,30.46,West,270,0.9,1.8,83,0.00,,,0.00,WUHU216HW,2013-01-08 09:43:00,
2013-01-08 01:48:00,46.8,42.0,30.46,SW,225,1.1,1.6,83,0.00,,,0.00,WUHU216HW,2013-01-08 09:48:00,
2013-01-08 01:53:00,46.8,42.0,30.45,SSW,203,0.4,1.1,83,0.00,,,0.00,WUHU216HW,2013-01-08 09:53:00,
2013-01-08 01:58:00,46.8,42.0,30.45,South,180,0.0,3.4,83,0.00,,,0.00,WUHU216HW,2013-01-08 09:58:00,
2013-01-08 02:03:00,46.8,42.0,30.45,SW,225,1.1,3.4,83,0.00,,,0.00,WUHU216HW,2013-01-08 10:03:00,
2013-01-08 02:08:00,46.6,41.8,30.45,West,270,0.0,5.1,83,0.00,,,0.00,WUHU216HW,2013-01-08 10:08:00,
2013-01-08 02:13:00,46.6,41.8,30.45,SSE,158,2.0,5.1,83,0.00,,,0.00,WUHU216HW,2013-01-08 10:13:00,
2013-01-08 02:18:00,46.6,41.8,30.45,SW,225,1.1,5.6,83,0.00,,,0.00,WUHU216HW,2013-01-08 10:18:00,
2013-01-08 02:23:00,46.6,41.8,30.45,SW,225,0.7,5.6,83,0.00,,,0.00,WUHU216HW,2013-01-08 10:23:00,
2013-01-08 02:28:00,46.6,41.8,30.45,South,180,1.3,2.5,83,0.00,,,0.00,WUHU216HW,2013-01-08 10:28:00,
2013-01-08 02:33:00,46.6,41.8,30.45,SSW,203,2.5,3.6,83,0.00,,,0.00,WUHU216HW,2013-01-08 10:33:00,
2013-01-08 02:38:00,46.6,41.8,30.45,South,180,2.0,3.6,83,0.00,,,0.00,WUHU216HW,2013-01-08 10:38:00,
2013-01-08 02:43:00,46.6,41.8,30.45,SW,225,1.8,3.4,83,0.00,,,0.00,WUHU216HW,2013-01-08 10:43:00,
2013-01-08 02:48:00,46.6,42.0,30.45,SSW,203,2.7,3.4,84,0.00,,,0.00,WUHU216HW,2013-01-08 10:48:00,
2013-01-08 02:53:00,46.4,42.0,30.45,West,270,0.4,2.9,84,0.00,,,0.00,WUHU216HW,2013-01-08 10:53:00,
2013-01-08 02:58:00,46.6,42.0,30.45,West,270,0.4,2.9,84,0.00,,,0.00,WUHU216HW,2013-01-08 10:58:00,
2013-01-08 03:03:00,46.4,42.0,30.45,SW,225,0.9,3.4,84,0.00,,,0.00,WUHU216HW,2013-01-08 11:03:00,
2013-01-08 03:08:00,46.4,42.0,30.45,SW,225,1.6,3.4,84,0.00,,,0.00,WUHU216HW,2013-01-08 11:08:00,
2013-01-08 03:13:00,46.4,42.0,30.45,North,0,0.0,2.2,84,0.00,,,0.00,WUHU216HW,2013-01-08 11:13:00,
2013-01-08 03:18:00,46.4,42.0,30.45,SSW,203,1.1,1.8,84,0.00,,,0.00,WUHU216HW,2013-01-08 11:18:00,
2013-01-08 03:23:00,46.4,42.0,30.45,South,180,2.2,2.2,84,0.00,,,0.00,WUHU216HW,2013-01-08 11:23:00,
2013-01-08 03:28:00,46.4,42.0,30.45,SSW,203,1.3,2.2,84,0.00,,,0.00,WUHU216HW,2013-01-08 11:28:00,
2013-01-08 03:33:00,46.4,42.0,30.45,SSW,203,0.9,1.3,84,0.00,,,0.00,WUHU216HW,2013-01-08 11:33:00,
2013-01-08 03:38:00,46.4,42.0,30.44,SSW,203,1.8,4.9,84,0.00,,,0.00,WUHU216HW,2013-01-08 11:38:00,
2013-01-08 03:43:00,46.4,42.0,30.44,WNW,293,0.7,4.9,84,0.00,,,0.00,WUHU216HW,2013-01-08 11:43:00,
2013-01-08 03:48:00,46.3,41.8,30.44,WNW,293,0.0,1.8,84,0.00,,,0.00,WUHU216HW,2013-01-08 11:48:00,
2013-01-08 03:53:00,46.3,42.0,30.44,SW,225,0.7,1.8,85,0.00,,,0.00,WUHU216HW,2013-01-08 11:53:00,
2013-01-08 03:58:00,46.3,42.0,30.43,South,180,0.0,1.8,85,0.00,,,0.00,WUHU216HW,2013-01-08 11:58:00,
2013-01-08 04:03:00,46.3,42.0,30.43,North,0,0.0,0.4,85,0.00,,,0.00,WUHU216HW,2013-01-08 12:03:00,
2013-01-08 04:08:00,46.3,42.0,30.43,West,270,0.0,2.7,85,0.00,,,0.00,WUHU216HW,2013-01-08 12:08:00,
2013-01-08 04:13:00,46.3,42.0,30.43,West,270,0.0,2.7,85,0.00,,,0.00,WUHU216HW,2013-01-08 12:13:00,
2013-01-08 04:18:00,46.3,42.0,30.44,SSW,203,0.0,0.0,85,0.00,,,0.00,WUHU216HW,2013-01-08 12:18:00,
2013-01-08 04:23:00,46.3,42.0,30.43,SW,225,0.0,0.4,85,0.00,,,0.00,WUHU216HW,2013-01-08 12:23:00,
2013-01-08 04:28:00,46.1,41.9,30.43,North,0,0.0,0.4,85,0.00,,,0.00,WUHU216HW,2013-01-08 12:28:00,
2013-01-08 04:33:00,46.3,42.0,30.43,North,0,0.0,0.0,85,0.00,,,0.00,WUHU216HW,2013-01-08 12:33:00,
2013-01-08 04:38:00,46.4,42.2,30.43,North,0,0.0,0.0,85,0.00,,,0.00,WUHU216HW,2013-01-08 12:38:00,
2013-01-08 04:43:00,46.4,42.2,30.43,North,0,0.0,0.0,85,0.00,,,0.00,WUHU216HW,2013-01-08 12:43:00,
2013-01-08 04:48:00,46.4,42.2,30.43,North,0,0.0,0.0,85,0.00,,,0.00,WUHU216HW,2013-01-08 12:48:00,
2013-01-08 04:53:00,46.3,42.0,30.42,North,0,0.0,0.0,85,0.00,,,0.00,WUHU216HW,2013-01-08 12:53:00,
2013-01-08 04:58:00,46.3,42.0,30.43,North,0,0.0,0.0,85,0.00,,,0.00,WUHU216HW,2013-01-08 12:58:00,
2013-01-08 05:03:00,46.3,42.0,30.43,North,0,0.0,0.0,85,0.00,,,0.00,WUHU216HW,2013-01-08 13:03:00,
2013-01-08 05:08:00,46.3,42.0,30.43,North,0,0.0,0.0,85,0.00,,,0.00,WUHU216HW,2013-01-08 13:08:00,
2013-01-08 05:13:00,46.3,42.0,30.42,North,0,0.0,0.0,85,0.00,,,0.00,WUHU216HW,2013-01-08 13:13:00,
2013-01-08 05:18:00,46.3,42.0,30.42,North,0,0.0,0.0,85,0.00,,,0.00,WUHU216HW,2013-01-08 13:18:00,
2013-01-08 05:23:00,46.1,41.9,30.41,North,0,0.0,0.0,85,0.00,,,0.00,WUHU216HW,2013-01-08 13:23:00,
2013-01-08 05:28:00,46.1,41.9,30.41,North,0,0.0,0.0,85,0.00,,,0.00,WUHU216HW,2013-01-08 13:28:00,
2013-01-08 05:33:00,46.1,41.9,30.41,North,0,0.0,0.0,85,0.00,,,0.00,WUHU216HW,2013-01-08 13:33:00,
2013-01-08 05:38:00,46.1,41.9,30.41,North,0,0.0,0.0,85,0.00,,,0.00,WUHU216HW,2013-01-08 13:38:00,
2013-01-08 05:43:00,46.1,41.9,30.41,North,0,0.0,0.0,85,0.00,,,0.00,WUHU216HW,2013-01-08 13:43:00,
2013-01-08 05:48:00,46.3,42.0,30.41,North,0,0.0,0.0,85,0.00,,,0.00,WUHU216HW,2013-01-08 13:48:00,
2013-01-08 05:53:00,46.3,42.0,30.41,North,0,0.0,0.0,85,0.00,,,0.00,WUHU216HW,2013-01-08 13:53:00,
2013-01-08 05:58:00,46.4,42.2,30.41,North,0,0.0,0.0,85,0.00,,,0.00,WUHU216HW,2013-01-08 13:58:00,
2013-01-08 06:03:00,46.3,42.0,30.41,North,0,0.0,0.0,85,0.00,,,0.00,WUHU216HW,2013-01-08 14:03:00,
2013-01-08 06:08:00,46.1,41.9,30.40,North,0,0.0,0.0,85,0.00,,,0.00,WUHU216HW,2013-01-08 14:08:00,
2013-01-08 06:13:00,46.1,41.9,30.40,North,0,0.0,0.0,85,0.01,,,0.01,WUHU216HW,2013-01-08 14:13:00,
2013-01-08 06:18:00,45.7,41.8,30.40,North,0,0.0,0.0,86,0.01,,,0.01,WUHU216HW,2013-01-08 14:18:00,
2013-01-08 06:23:00,45.7,41.8,30.40,North,0,0.0,0.0,86,0.01,,,0.01,WUHU216HW,2013-01-08 14:23:00,
2013-01-08 06:28:00,45.7,41.8,30.39,North,0,0.0,0.0,86,0.01,,,0.01,WUHU216HW,2013-01-08 14:28:00,
2013-01-08 06:33:00,45.5,42.0,30.39,North,0,0.0,0.0,87,0.02,,,0.02,WUHU216HW,2013-01-08 14:33:00,
2013-01-08 06:38:00,45.5,42.0,30.39,North,0,0.0,0.0,87,0.02,,,0.02,WUHU216HW,2013-01-08 14:38:00,
2013-01-08 06:43:00,45.4,41.8,30.39,North,0,0.0,0.0,87,0.03,,,0.03,WUHU216HW,2013-01-08 14:43:00,
2013-01-08 06:48:00,45.2,41.6,30.38,North,0,0.0,0.0,87,0.03,,,0.03,WUHU216HW,2013-01-08 14:48:00,
2013-01-08 06:53:00,45.0,41.4,30.38,North,0,0.0,0.0,87,0.03,,,0.03,WUHU216HW,2013-01-08 14:53:00,
2013-01-08 06:58:00,44.6,41.1,30.37,North,0,0.0,0.0,87,0.04,,,0.05,WUHU216HW,2013-01-08 14:58:00,
2013-01-08 07:03:00,44.5,41.1,30.36,South,180,0.0,0.2,88,0.04,,,0.05,WUHU216HW,2013-01-08 15:03:00,
2013-01-08 07:08:00,44.3,41.0,30.36,WSW,248,1.1,1.6,88,0.04,,,0.05,WUHU216HW,2013-01-08 15:08:00,
2013-01-08 07:13:00,44.3,41.0,30.36,SW,225,0.7,1.6,88,0.04,,,0.05,WUHU216HW,2013-01-08 15:13:00,
2013-01-08 07:18:00,43.9,40.6,30.36,WSW,248,0.0,1.1,88,0.05,,,0.07,WUHU216HW,2013-01-08 15:18:00,
2013-01-08 07:23:00,43.6,40.2,30.37,NW,315,0.0,0.9,88,0.05,,,0.07,WUHU216HW,2013-01-08 15:23:00,
2013-01-08 07:28:00,43.4,40.1,30.37,NW,315,0.0,0.9,88,0.04,,,0.07,WUHU216HW,2013-01-08 15:28:00,
2013-01-08 07:33:00,43.2,39.9,30.37,NW,315,0.0,0.2,88,0.05,,,0.07,WUHU216HW,2013-01-08 15:33:00,
2013-01-08 07:38:00,43.2,39.9,30.37,WSW,248,0.0,0.7,88,0.05,,,0.07,WUHU216HW,2013-01-08 15:38:00,
2013-01-08 07:43:00,43.2,39.9,30.36,WNW,293,0.0,0.7,88,0.04,,,0.07,WUHU216HW,2013-01-08 15:43:00,
2013-01-08 07:48:00,43.0,39.7,30.36,WNW,293,0.0,0.4,88,0.04,,,0.07,WUHU216HW,2013-01-08 15:48:00,
2013-01-08 07:53:00,43.0,39.7,30.36,NW,315,0.0,0.4,88,0.05,,,0.09,WUHU216HW,2013-01-08 15:53:00,
2013-01-08 07:58:00,42.8,39.9,30.35,NW,315,0.0,0.2,89,0.04,,,0.09,WUHU216HW,2013-01-08 15:58:00,
2013-01-08 08:03:00,42.8,39.9,30.35,NNW,338,0.7,0.7,89,0.04,,,0.09,WUHU216HW,2013-01-08 16:03:00,
2013-01-08 08:08:00,42.8,39.9,30.35,NNW,338,0.0,0.7,89,0.04,,,0.10,WUHU216HW,2013-01-08 16:08:00,
2013-01-08 08:13:00,42.8,39.9,30.35,NNW,338,0.0,0.4,89,0.03,,,0.10,WUHU216HW,2013-01-08 16:13:00,
2013-01-08 08:18:00,42.7,40.0,30.35,NNW,338,0.0,0.4,90,0.03,,,0.10,WUHU216HW,2013-01-08 16:18:00,
2013-01-08 08:23:00,42.5,39.8,30.34,West,270,0.2,0.4,90,0.04,,,0.10,WUHU216HW,2013-01-08 16:23:00,
2013-01-08 08:28:00,42.5,39.8,30.35,SE,135,0.0,0.7,90,0.03,,,0.10,WUHU216HW,2013-01-08 16:28:00,
2013-01-08 08:33:00,42.5,39.8,30.34,SSW,203,0.4,1.3,90,0.03,,,0.10,WUHU216HW,2013-01-08 16:33:00,
2013-01-08 08:38:00,42.5,39.8,30.34,SSW,203,0.4,1.3,90,0.04,,,0.12,WUHU216HW,2013-01-08 16:38:00,
2013-01-08 08:43:00,42.5,39.8,30.34,SW,225,0.7,0.9,90,0.04,,,0.12,WUHU216HW,2013-01-08 16:43:00,
2013-01-08 08:48:00,42.5,39.8,30.35,WSW,248,0.0,0.9,90,0.03,,,0.12,WUHU216HW,2013-01-08 16:48:00,
2013-01-08 08:53:00,42.5,39.8,30.35,SSW,203,0.0,0.9,90,0.04,,,0.12,WUHU216HW,2013-01-08 16:53:00,
2013-01-08 08:58:00,42.5,40.1,30.34,WSW,248,0.7,1.6,91,0.04,,,0.12,WUHU216HW,2013-01-08 16:58:00,
2013-01-08 09:03:00,42.5,40.1,30.34,West,270,0.0,1.6,91,0.05,,,0.12,WUHU216HW,2013-01-08 17:03:00,
2013-01-08 09:08:00,42.3,39.9,30.34,WSW,248,0.4,0.7,91,0.04,,,0.14,WUHU216HW,2013-01-08 17:08:00,
2013-01-08 09:13:00,42.5,39.8,30.34,WSW,248,0.0,0.7,90,0.04,,,0.14,WUHU216HW,2013-01-08 17:13:00,
2013-01-08 09:18:00,42.5,39.8,30.33,SW,225,0.4,0.7,90,0.04,,,0.14,WUHU216HW,2013-01-08 17:18:00,
2013-01-08 09:23:00,42.3,39.9,30.33,SSE,158,0.0,1.3,91,0.05,,,0.16,WUHU216HW,2013-01-08 17:23:00,
2013-01-08 09:28:00,42.3,39.9,30.33,WSW,248,0.7,1.8,91,0.05,,,0.16,WUHU216HW,2013-01-08 17:28:00,
2013-01-08 09:33:00,42.3,39.9,30.32,SSW,203,0.9,1.8,91,0.06,,,0.16,WUHU216HW,2013-01-08 17:33:00,
2013-01-08 09:38:00,42.3,39.9,30.32,SW,225,0.0,1.3,91,0.05,,,0.17,WUHU216HW,2013-01-08 17:38:00,
2013-01-08 09:43:00,42.1,39.7,30.32,WSW,248,0.0,0.4,91,0.06,,,0.18,WUHU216HW,2013-01-08 17:43:00,
2013-01-08 09:48:00,42.1,39.7,30.31,SW,225,0.0,0.0,91,0.05,,,0.18,WUHU216HW,2013-01-08 17:48:00,
2013-01-08 09:53:00,42.3,39.9,30.30,SW,225,0.0,0.7,91,0.05,,,0.18,WUHU216HW,2013-01-08 17:53:00,
2013-01-08 09:58:00,42.3,39.9,30.31,WSW,248,0.4,0.7,91,0.05,,,0.18,WUHU216HW,2013-01-08 17:58:00,
2013-01-08 10:03:00,42.3,39.9,30.30,WNW,293,0.9,0.9,91,0.04,,,0.18,WUHU216HW,2013-01-08 18:03:00,
2013-01-08 10:08:00,42.5,40.1,30.30,SSW,203,1.1,1.8,91,0.04,,,0.18,WUHU216HW,2013-01-08 18:08:00,
2013-01-08 10:13:00,42.5,40.1,30.29,South,180,2.5,2.5,91,0.03,,,0.18,WUHU216HW,2013-01-08 18:13:00,
2013-01-08 10:18:00,42.5,40.1,30.29,East,90,1.8,2.5,91,0.03,,,0.18,WUHU216HW,2013-01-08 18:18:00,
2013-01-08 10:23:00,42.5,40.1,30.29,South,180,0.7,2.5,91,0.02,,,0.18,WUHU216HW,2013-01-08 18:23:00,
2013-01-08 10:28:00,42.5,40.1,30.28,SE,135,1.1,3.4,91,0.02,,,0.18,WUHU216HW,2013-01-08 18:28:00,
2013-01-08 10:33:00,42.7,40.2,30.28,NNE,23,0.0,3.4,91,0.01,,,0.18,WUHU216HW,2013-01-08 18:33:00,
2013-01-08 10:38:00,42.7,40.5,30.28,South,180,0.0,2.0,92,0.01,,,0.18,WUHU216HW,2013-01-08 18:38:00,
2013-01-08 10:43:00,42.5,40.3,30.28,WSW,248,0.0,2.0,92,0.00,,,0.18,WUHU216HW,2013-01-08 18:43:00,
2013-01-08 10:48:00,42.5,40.3,30.27,NNW,338,0.9,1.8,92,0.00,,,0.18,WUHU216HW,2013-01-08 18:48:00,
2013-01-08 10:53:00,42.7,40.5,30.27,South,180,0.4,0.9,92,0.01,,,0.19,WUHU216HW,2013-01-08 18:53:00,
2013-01-08 10:58:00,42.7,40.5,30.26,NNE,23,0.0,0.9,92,0.01,,,0.19,WUHU216HW,2013-01-08 18:58:00,
2013-01-08 11:03:00,42.7,40.5,30.25,NE,45,0.7,1.3,92,0.01,,,0.19,WUHU216HW,2013-01-08 19:03:00,
2013-01-08 11:08:00,42.7,40.5,30.26,NNE,23,0.0,1.3,92,0.01,,,0.19,WUHU216HW,2013-01-08 19:08:00,
2013-01-08 11:13:00,42.7,40.5,30.25,SE,135,0.0,1.1,92,0.02,,,0.20,WUHU216HW,2013-01-08 19:13:00,
2013-01-08 11:18:00,42.8,40.7,30.25,SSW,203,0.0,1.1,92,0.02,,,0.20,WUHU216HW,2013-01-08 19:18:00,
2013-01-08 11:23:00,42.8,40.7,30.24,WSW,248,3.4,3.4,92,0.02,,,0.20,WUHU216HW,2013-01-08 19:23:00,
2013-01-08 11:28:00,42.8,41.0,30.24,ESE,113,0.2,3.4,93,0.02,,,0.20,WUHU216HW,2013-01-08 19:28:00,
2013-01-08 11:33:00,42.8,41.0,30.24,NNW,338,0.2,1.1,93,0.04,,,0.20,WUHU216HW,2013-01-08 19:33:00,
2013-01-08 11:38:00,43.0,40.9,30.23,NNE,23,0.4,0.4,92,0.04,,,0.22,WUHU216HW,2013-01-08 19:38:00,
2013-01-08 11:43:00,43.0,40.9,30.24,NNE,23,0.4,0.4,92,0.04,,,0.22,WUHU216HW,2013-01-08 19:43:00,
2013-01-08 11:48:00,43.2,41.0,30.23,NNE,23,0.0,0.7,92,0.04,,,0.22,WUHU216HW,2013-01-08 19:48:00,
2013-01-08 11:53:00,43.2,41.0,30.23,NNE,23,0.0,0.7,92,0.03,,,0.22,WUHU216HW,2013-01-08 19:53:00,
2013-01-08 11:58:00,43.2,41.3,30.23,North,0,0.4,0.4,93,0.03,,,0.22,WUHU216HW,2013-01-08 19:58:00,
2013-01-08 12:03:00,43.2,41.0,30.22,North,0,0.2,0.4,92,0.03,,,0.22,WUHU216HW,2013-01-08 20:03:00,
2013-01-08 12:08:00,43.4,41.5,30.22,North,0,0.0,0.4,93,0.02,,,0.22,WUHU216HW,2013-01-08 20:08:00,
2013-01-08 12:13:00,43.7,41.9,30.22,SE,135,1.8,1.8,93,0.02,,,0.22,WUHU216HW,2013-01-08 20:13:00,
2013-01-08 12:18:00,43.9,42.0,30.22,SSW,203,0.0,1.8,93,0.02,,,0.22,WUHU216HW,2013-01-08 20:18:00,
2013-01-08 12:23:00,44.1,42.2,30.22,South,180,1.3,1.8,93,0.02,,,0.22,WUHU216HW,2013-01-08 20:23:00,
2013-01-08 12:28:00,44.5,42.6,30.22,SSW,203,0.0,1.3,93,0.02,,,0.22,WUHU216HW,2013-01-08 20:28:00,
2013-01-08 12:33:00,44.6,42.8,30.21,SSE,158,0.2,0.9,93,0.00,,,0.22,WUHU216HW,2013-01-08 20:33:00,
2013-01-08 12:38:00,45.0,43.1,30.21,South,180,1.1,2.0,93,0.00,,,0.22,WUHU216HW,2013-01-08 20:38:00,
2013-01-08 12:43:00,45.0,43.1,30.21,SW,225,0.9,2.0,93,0.00,,,0.22,WUHU216HW,2013-01-08 20:43:00,
2013-01-08 12:48:00,45.4,43.5,30.21,SSW,203,1.6,1.8,93,0.00,,,0.22,WUHU216HW,2013-01-08 20:48:00,
2013-01-08 12:53:00,45.5,43.7,30.20,SSW,203,3.4,3.4,93,0.00,,,0.22,WUHU216HW,2013-01-08 20:53:00,
2013-01-08 12:58:00,45.7,44.1,30.20,SW,225,1.1,3.4,94,0.00,,,0.22,WUHU216HW,2013-01-08 20:58:00,
2013-01-08 13:03:00,46.3,44.6,30.19,WSW,248,1.6,4.0,94,0.00,,,0.22,WUHU216HW,2013-01-08 21:03:00,
2013-01-08 13:08:00,46.8,45.2,30.19,SSW,203,4.9,4.9,94,0.00,,,0.22,WUHU216HW,2013-01-08 21:08:00,
2013-01-08 13:13:00,47.2,46.1,30.19,SW,225,1.8,4.9,96,0.00,,,0.22,WUHU216HW,2013-01-08 21:13:00,
2013-01-08 13:18:00,47.3,46.3,30.19,South,180,1.6,6.5,96,0.00,,,0.22,WUHU216HW,2013-01-08 21:18:00,
2013-01-08 13:23:00,47.5,46.4,30.19,SSE,158,1.8,6.5,96,0.00,,,0.22,WUHU216HW,2013-01-08 21:23:00,
2013-01-08 13:28:00,47.7,46.6,30.18,SSW,203,9.4,9.4,96,0.00,,,0.22,WUHU216HW,2013-01-08 21:28:00,
2013-01-08 13:33:00,47.9,46.8,30.18,SSW,203,1.8,9.4,96,0.00,,,0.22,WUHU216HW,2013-01-08 21:33:00,
2013-01-08 13:38:00,48.1,47.0,30.18,SW,225,2.7,4.0,96,0.00,,,0.22,WUHU216HW,2013-01-08 21:38:00,
2013-01-08 13:43:00,48.1,47.0,30.17,SE,135,2.0,5.8,96,0.00,,,0.22,WUHU216HW,2013-01-08 21:43:00,
2013-01-08 13:48:00,48.2,46.9,30.17,SSE,158,2.5,5.8,95,0.00,,,0.22,WUHU216HW,2013-01-08 21:48:00,
2013-01-08 13:53:00,48.4,47.1,30.17,SSW,203,2.5,4.7,95,0.00,,,0.22,WUHU216HW,2013-01-08 21:53:00,
2013-01-08 13:58:00,48.6,47.3,30.17,SW,225,5.1,5.1,95,0.00,,,0.22,WUHU216HW,2013-01-08 21:58:00,
2013-01-08 14:03:00,48.6,47.3,30.17,SSW,203,2.5,5.8,95,0.00,,,0.22,WUHU216HW,2013-01-08 22:03:00,
2013-01-08 14:08:00,48.6,47.3,30.17,SSW,203,1.1,5.8,95,0.00,,,0.22,WUHU216HW,2013-01-08 22:08:00,
2013-01-08 14:13:00,48.8,47.4,30.17,South,180,2.5,5.1,95,0.00,,,0.22,WUHU216HW,2013-01-08 22:13:00,
2013-01-08 14:18:00,48.8,47.4,30.17,NNE,23,1.8,5.1,95,0.00,,,0.22,WUHU216HW,2013-01-08 22:18:00,
2013-01-08 14:23:00,48.8,47.4,30.17,SSW,203,4.0,4.7,95,0.00,,,0.22,WUHU216HW,2013-01-08 22:23:00,
2013-01-08 14:28:00,49.0,47.6,30.17,SE,135,2.5,4.5,95,0.00,,,0.22,WUHU216HW,2013-01-08 22:28:00,
2013-01-08 14:33:00,49.0,47.6,30.17,SSW,203,2.0,4.5,95,0.00,,,0.22,WUHU216HW,2013-01-08 22:33:00,
2013-01-08 14:38:00,49.0,47.6,30.17,SSE,158,1.6,4.3,95,0.00,,,0.22,WUHU216HW,2013-01-08 22:38:00,
2013-01-08 14:43:00,49.0,47.6,30.17,SW,225,2.2,2.5,95,0.00,,,0.22,WUHU216HW,2013-01-08 22:43:00,
2013-01-08 14:48:00,49.1,47.7,30.17,WSW,248,0.9,4.5,95,0.00,,,0.22,WUHU216HW,2013-01-08 22:48:00,
2013-01-08 14:53:00,49.1,47.7,30.17,South,180,2.5,4.5,95,0.00,,,0.22,WUHU216HW,2013-01-08 22:53:00,
2013-01-08 14:58:00,49.1,47.7,30.17,South,180,1.1,3.4,95,0.00,,,0.22,WUHU216HW,2013-01-08 22:58:00,
2013-01-08 15:03:00,49.1,47.4,30.17,West,270,0.0,2.0,94,0.00,,,0.22,WUHU216HW,2013-01-08 23:03:00,
2013-01-08 15:08:00,49.3,47.6,30.17,SSW,203,0.4,3.4,94,0.00,,,0.22,WUHU216HW,2013-01-08 23:08:00,
2013-01-08 15:13:00,49.3,47.9,30.17,WSW,248,1.6,5.4,95,0.00,,,0.22,WUHU216HW,2013-01-08 23:13:00,
2013-01-08 15:18:00,49.3,47.9,30.17,SSW,203,4.9,5.4,95,0.00,,,0.22,WUHU216HW,2013-01-08 23:18:00,
2013-01-08 15:23:00,49.5,48.1,30.17,SW,225,0.2,4.9,95,0.00,,,0.22,WUHU216HW,2013-01-08 23:23:00,
2013-01-08 15:28:00,49.5,47.8,30.17,WSW,248,0.2,3.4,94,0.00,,,0.22,WUHU216HW,2013-01-08 23:28:00,
2013-01-08 15:33:00,49.5,47.8,30.16,SSW,203,1.3,2.2,94,0.00,,,0.22,WUHU216HW,2013-01-08 23:33:00,
2013-01-08 15:38:00,49.5,47.8,30.16,SSW,203,2.2,2.2,94,0.00,,,0.22,WUHU216HW,2013-01-08 23:38:00,
2013-01-08 15:43:00,49.5,47.8,30.16,South,180,1.1,3.4,94,0.00,,,0.22,WUHU216HW,2013-01-08 23:43:00,
2013-01-08 15:48:00,49.5,47.8,30.16,South,180,1.3,3.4,94,0.00,,,0.22,WUHU216HW,2013-01-08 23:48:00,
2013-01-08 15:53:00,49.7,48.0,30.14,SW,225,1.8,2.5,94,0.00,,,0.22,WUHU216HW,2013-01-08 23:53:00,
2013-01-08 15:58:00,49.7,48.0,30.14,SW,225,3.4,3.4,94,0.00,,,0.22,WUHU216HW,2013-01-08 23:58:00,
2013-01-08 16:03:00,49.9,48.2,30.14,SE,135,1.8,3.4,94,0.00,,,0.22,WUHU216HW,2013-01-09 00:03:00,
2013-01-08 16:08:00,49.9,48.4,30.13,WNW,293,3.4,6.0,95,0.00,,,0.22,WUHU216HW,2013-01-09 00:08:00,
2013-01-08 16:13:00,50.0,48.6,30.13,SW,225,1.6,6.0,95,0.00,,,0.22,WUHU216HW,2013-01-09 00:13:00,
2013-01-08 16:18:00,50.0,48.6,30.13,SW,225,3.6,5.4,95,0.00,,,0.22,WUHU216HW,2013-01-09 00:18:00,
2013-01-08 16:23:00,50.2,48.5,30.13,SSW,203,3.6,7.6,94,0.00,,,0.22,WUHU216HW,2013-01-09 00:23:00,
2013-01-08 16:28:00,50.4,48.7,30.12,SSW,203,1.3,7.6,94,0.00,,,0.22,WUHU216HW,2013-01-09 00:28:00,
2013-01-08 16:33:00,50.6,48.9,30.13,SSW,203,4.7,5.4,94,0.00,,,0.22,WUHU216HW,2013-01-09 00:33:00,
2013-01-08 16:38:00,50.8,49.1,30.13,SW,225,4.0,4.7,94,0.00,,,0.22,WUHU216HW,2013-01-09 00:38:00,
2013-01-08 16:43:00,50.8,49.1,30.12,SSW,203,0.7,4.7,94,0.00,,,0.22,WUHU216HW,2013-01-09 00:43:00,
2013-01-08 16:48:00,50.8,49.1,30.12,SSW,203,2.9,3.8,94,0.00,,,0.22,WUHU216HW,2013-01-09 00:48:00,
2013-01-08 16:53:00,50.8,49.1,30.12,SW,225,2.9,3.8,94,0.00,,,0.22,WUHU216HW,2013-01-09 00:53:00,
2013-01-08 16:58:00,50.8,48.8,30.12,WSW,248,1.8,6.3,93,0.00,,,0.22,WUHU216HW,2013-01-09 00:58:00,
2013-01-08 17:03:00,50.8,48.8,30.12,SSE,158,3.4,6.3,93,0.00,,,0.22,WUHU216HW,2013-01-09 01:03:00,
2013-01-08 17:08:00,50.9,49.0,30.12,SSW,203,1.6,6.0,93,0.00,,,0.22,WUHU216HW,2013-01-09 01:08:00,
2013-01-08 17:13:00,50.9,48.6,30.12,SE,135,4.0,9.2,92,0.00,,,0.22,WUHU216HW,2013-01-09 01:13:00,
2013-01-08 17:18:00,51.1,48.8,30.12,WSW,248,2.0,9.2,92,0.00,,,0.22,WUHU216HW,2013-01-09 01:18:00,
2013-01-08 17:23:00,51.1,48.8,30.12,West,270,3.4,8.9,92,0.00,,,0.22,WUHU216HW,2013-01-09 01:23:00,
2013-01-08 17:28:00,51.3,49.0,30.12,WSW,248,5.4,5.8,92,0.00,,,0.22,WUHU216HW,2013-01-09 01:28:00,
2013-01-08 17:33:00,51.3,49.0,30.11,SSE,158,2.5,8.5,92,0.00,,,0.22,WUHU216HW,2013-01-09 01:33:00,
2013-01-08 17:38:00,51.1,48.8,30.12,WSW,248,3.4,8.5,92,0.00,,,0.22,WUHU216HW,2013-01-09 01:38:00,
2013-01-08 17:43:00,51.1,48.8,30.12,WSW,248,2.5,8.3,92,0.00,,,0.22,WUHU216HW,2013-01-09 01:43:00,
2013-01-08 17:48:00,51.1,48.8,30.12,South,180,6.5,6.5,92,0.00,,,0.22,WUHU216HW,2013-01-09 01:48:00,
2013-01-08 17:53:00,51.3,49.0,30.11,WSW,248,5.4,6.5,92,0.00,,,0.22,WUHU216HW,2013-01-09 01:53:00,
2013-01-08 17:58:00,51.3,49.0,30.11,SW,225,2.9,8.7,92,0.00,,,0.22,WUHU216HW,2013-01-09 01:58:00,
2013-01-08 18:03:00,51.3,49.0,30.11,WSW,248,3.6,8.7,92,0.00,,,0.22,WUHU216HW,2013-01-09 02:03:00,
2013-01-08 18:08:00,51.1,48.8,30.10,NE,45,1.1,5.8,92,0.00,,,0.22,WUHU216HW,2013-01-09 02:08:00,
2013-01-08 18:13:00,51.1,48.8,30.09,SSE,158,3.8,5.8,92,0.00,,,0.22,WUHU216HW,2013-01-09 02:13:00,
2013-01-08 18:18:00,51.1,48.8,30.10,WSW,248,4.9,4.9,92,0.00,,,0.22,WUHU216HW,2013-01-09 02:18:00,
2013-01-08 18:23:00,51.1,48.5,30.09,South,180,2.9,6.0,91,0.00,,,0.22,WUHU216HW,2013-01-09 02:23:00,
2013-01-08 18:28:00,51.5,48.9,30.09,SSE,158,4.0,9.4,91,0.00,,,0.22,WUHU216HW,2013-01-09 02:28:00,
2013-01-08 18:33:00,51.5,48.9,30.09,SSE,158,0.9,9.4,91,0.00,,,0.22,WUHU216HW,2013-01-09 02:33:00,
2013-01-08 18:38:00,51.5,48.9,30.09,South,180,3.1,4.0,91,0.00,,,0.22,WUHU216HW,2013-01-09 02:38:00,
2013-01-08 18:43:00,51.5,48.6,30.09,SSE,158,5.1,5.1,90,0.00,,,0.22,WUHU216HW,2013-01-09 02:43:00,
2013-01-08 18:48:00,51.7,48.5,30.09,SSW,203,6.3,6.3,89,0.00,,,0.22,WUHU216HW,2013-01-09 02:48:00,
2013-01-08 18:53:00,51.8,49.0,30.09,SW,225,2.0,6.3,90,0.00,,,0.22,WUHU216HW,2013-01-09 02:53:00,
2013-01-08 18:58:00,52.0,48.9,30.08,SW,225,2.2,4.0,89,0.00,,,0.22,WUHU216HW,2013-01-09 02:58:00,
2013-01-08 19:03:00,52.2,49.1,30.08,SSE,158,6.9,6.9,89,0.00,,,0.22,WUHU216HW,2013-01-09 03:03:00,
2013-01-08 19:08:00,52.2,48.7,30.08,SSW,203,5.6,6.9,88,0.00,,,0.22,WUHU216HW,2013-01-09 03:08:00,
2013-01-08 19:13:00,52.2,48.7,30.08,NW,315,6.3,8.5,88,0.00,,,0.22,WUHU216HW,2013-01-09 03:13:00,
2013-01-08 19:18:00,52.2,48.7,30.08,SSW,203,4.0,8.5,88,0.00,,,0.22,WUHU216HW,2013-01-09 03:18:00,
2013-01-08 19:23:00,52.4,48.6,30.07,SSE,158,2.5,6.9,87,0.00,,,0.22,WUHU216HW,2013-01-09 03:23:00,
2013-01-08 19:28:00,52.4,48.9,30.07,SSE,158,1.6,6.9,88,0.00,,,0.22,WUHU216HW,2013-01-09 03:28:00,
2013-01-08 19:33:00,52.4,48.2,30.07,SW,225,4.7,6.3,86,0.00,,,0.22,WUHU216HW,2013-01-09 03:33:00,
2013-01-08 19:38:00,52.6,48.4,30.07,SSW,203,5.8,7.2,86,0.00,,,0.22,WUHU216HW,2013-01-09 03:38:00,
2013-01-08 19:43:00,52.6,48.4,30.07,SSW,203,2.5,7.2,86,0.00,,,0.22,WUHU216HW,2013-01-09 03:43:00,
2013-01-08 19:48:00,52.6,48.4,30.07,SSW,203,5.4,6.9,86,0.00,,,0.22,WUHU216HW,2013-01-09 03:48:00,
2013-01-08 19:53:00,52.7,48.1,30.07,South,180,8.7,8.7,84,0.00,,,0.22,WUHU216HW,2013-01-09 03:53:00,
2013-01-08 19:58:00,52.9,48.5,30.06,ENE,68,2.5,8.7,85,0.00,,,0.22,WUHU216HW,2013-01-09 03:58:00,
2013-01-08 20:03:00,52.9,48.3,30.06,SSW,203,4.0,6.3,84,0.00,,,0.22,WUHU216HW,2013-01-09 04:03:00,
2013-01-08 20:08:00,52.9,48.3,30.07,SSW,203,4.0,6.3,84,0.00,,,0.22,WUHU216HW,2013-01-09 04:08:00,
2013-01-08 20:13:00,52.9,48.3,30.07,South,180,6.3,6.3,84,0.00,,,0.22,WUHU216HW,2013-01-09 04:13:00,
2013-01-08 20:18:00,53.1,48.4,30.07,West,270,3.1,6.3,84,0.00,,,0.22,WUHU216HW,2013-01-09 04:18:00,
2013-01-08 20:23:00,52.9,48.3,30.07,WSW,248,5.4,9.2,84,0.00,,,0.22,WUHU216HW,2013-01-09 04:23:00,
2013-01-08 20:28:00,52.9,47.9,30.07,SSE,158,7.6,9.2,83,0.00,,,0.22,WUHU216HW,2013-01-09 04:28:00,
2013-01-08 20:33:00,53.1,48.1,30.06,SW,225,4.9,7.6,83,0.00,,,0.22,WUHU216HW,2013-01-09 04:33:00,
2013-01-08 20:38:00,52.9,47.6,30.06,WSW,248,4.7,4.9,82,0.00,,,0.22,WUHU216HW,2013-01-09 04:38:00,
2013-01-08 20:43:00,53.1,47.8,30.06,SW,225,1.8,4.7,82,0.00,,,0.22,WUHU216HW,2013-01-09 04:43:00,
2013-01-08 20:48:00,53.1,47.8,30.06,South,180,7.4,7.4,82,0.00,,,0.22,WUHU216HW,2013-01-09 04:48:00,
2013-01-08 20:53:00,53.3,48.2,30.06,SE,135,3.4,7.4,83,0.00,,,0.22,WUHU216HW,2013-01-09 04:53:00,
2013-01-08 20:58:00,53.1,47.8,30.06,SW,225,2.5,6.3,82,0.00,,,0.22,WUHU216HW,2013-01-09 04:58:00,
2013-01-08 21:00:00,53.1,48.1,30.06,South,180,3.4,8.5,83,0.00,,,0.22,WUHU216HW,2013-01-09 05:00:00,
2013-01-08 21:01:00,53.1,48.1,30.06,South,180,3.4,8.5,83,0.00,,,0.22,WUHU216HW,2013-01-09 05:01:00,
2013-01-08 21:03:00,53.1,48.1,30.06,SW,225,2.9,8.5,83,0.00,,,0.22,WUHU216HW,2013-01-09 05:03:00,
2013-01-08 21:08:00,52.9,47.9,30.06,WSW,248,4.0,8.5,83,0.00,,,0.22,WUHU216HW,2013-01-09 05:08:00,
2013-01-08 21:13:00,52.9,48.3,30.06,South,180,3.1,8.5,84,0.00,,,0.22,WUHU216HW,2013-01-09 05:13:00,
2013-01-08 21:18:00,52.7,48.1,30.06,SSE,158,6.5,8.5,84,0.00,,,0.22,WUHU216HW,2013-01-09 05:18:00,
2013-01-08 21:23:00,52.6,47.9,30.06,SSE,158,4.0,6.9,84,0.00,,,0.22,WUHU216HW,2013-01-09 05:23:00,
2013-01-08 21:28:00,52.6,48.2,30.06,SSW,203,2.0,11.2,85,0.00,,,0.22,WUHU216HW,2013-01-09 05:28:00,
2013-01-08 21:33:00,52.4,48.2,30.06,West,270,4.5,11.2,86,0.00,,,0.22,WUHU216HW,2013-01-09 05:33:00,
2013-01-08 21:38:00,52.2,48.1,30.06,SSE,158,4.3,9.2,86,0.00,,,0.22,WUHU216HW,2013-01-09 05:38:00,
2013-01-08 21:43:00,52.0,47.9,30.06,SE,135,5.1,9.2,86,0.00,,,0.22,WUHU216HW,2013-01-09 05:43:00,
2013-01-08 21:48:00,51.8,48.1,30.06,SW,225,6.3,6.3,87,0.00,,,0.22,WUHU216HW,2013-01-09 05:48:00,
2013-01-08 21:53:00,51.8,48.3,30.06,SSW,203,1.8,6.3,88,0.00,,,0.22,WUHU216HW,2013-01-09 05:53:00,
2013-01-08 21:58:00,51.5,48.3,30.06,SE,135,3.8,7.6,89,0.00,,,0.22,WUHU216HW,2013-01-09 05:58:00,
2013-01-08 22:03:00,51.5,48.3,30.05,SSE,158,2.0,7.6,89,0.00,,,0.22,WUHU216HW,2013-01-09 06:03:00,
2013-01-08 22:08:00,51.5,48.3,30.06,SW,225,4.7,6.3,89,0.00,,,0.22,WUHU216HW,2013-01-09 06:08:00,
2013-01-08 22:13:00,51.3,48.4,30.06,SW,225,2.5,5.6,90,0.00,,,0.22,WUHU216HW,2013-01-09 06:13:00,
2013-01-08 22:18:00,51.1,48.0,30.06,South,180,1.1,4.0,89,0.00,,,0.22,WUHU216HW,2013-01-09 06:18:00,
2013-01-08 22:23:00,50.9,48.1,30.06,South,180,1.3,6.0,90,0.00,,,0.22,WUHU216HW,2013-01-09 06:23:00,
2013-01-08 22:28:00,50.8,47.9,30.06,SE,135,4.3,6.0,90,0.00,,,0.22,WUHU216HW,2013-01-09 06:28:00,
2013-01-08 22:33:00,50.8,47.9,30.05,SSW,203,3.1,4.3,90,0.00,,,0.22,WUHU216HW,2013-01-09 06:33:00,
2013-01-08 22:38:00,50.8,47.9,30.05,SW,225,3.6,3.6,90,0.00,,,0.22,WUHU216HW,2013-01-09 06:38:00,
2013-01-08 22:43:00,50.8,47.9,30.05,SSW,203,2.5,4.9,90,0.00,,,0.22,WUHU216HW,2013-01-09 06:43:00,
2013-01-08 22:48:00,50.6,48.0,30.05,SW,225,4.3,4.9,91,0.00,,,0.22,WUHU216HW,2013-01-09 06:48:00,
2013-01-08 22:53:00,50.6,48.0,30.05,SSE,158,5.4,5.4,91,0.00,,,0.22,WUHU216HW,2013-01-09 06:53:00,
2013-01-08 22:58:00,50.6,48.0,30.05,South,180,9.2,9.2,91,0.00,,,0.22,WUHU216HW,2013-01-09 06:58:00,
2013-01-08 23:03:00,50.4,47.8,30.05,SSW,203,2.5,9.2,91,0.00,,,0.22,WUHU216HW,2013-01-09 07:03:00,
2013-01-08 23:08:00,50.4,48.1,30.05,SW,225,3.1,5.4,92,0.00,,,0.22,WUHU216HW,2013-01-09 07:08:00,
2013-01-08 23:13:00,50.4,48.1,30.05,SSW,203,4.9,5.4,92,0.00,,,0.22,WUHU216HW,2013-01-09 07:13:00,
2013-01-08 23:18:00,50.4,48.1,30.05,SW,225,3.1,4.9,92,0.00,,,0.22,WUHU216HW,2013-01-09 07:18:00,
2013-01-08 23:23:00,50.4,48.1,30.05,WSW,248,2.0,4.7,92,0.00,,,0.22,WUHU216HW,2013-01-09 07:23:00,
2013-01-08 23:28:00,50.2,47.9,30.05,SW,225,2.9,5.4,92,0.00,,,0.22,WUHU216HW,2013-01-09 07:28:00,
2013-01-08 23:33:00,50.2,47.9,30.05,South,180,3.6,5.8,92,0.00,,,0.22,WUHU216HW,2013-01-09 07:33:00,
2013-01-08 23:38:00,50.2,47.9,30.05,South,180,2.2,5.8,92,0.00,,,0.22,WUHU216HW,2013-01-09 07:38:00,
2013-01-08 23:43:00,50.2,47.9,30.05,SSE,158,1.3,4.0,92,0.00,,,0.22,WUHU216HW,2013-01-09 07:43:00,
2013-01-08 23:48:00,50.2,47.9,30.05,SSE,158,5.4,5.4,92,0.00,,,0.22,WUHU216HW,2013-01-09 07:48:00,
2013-01-08 23:53:00,50.2,47.9,30.05,South,180,1.3,5.4,92,0.00,,,0.22,WUHU216HW,2013-01-09 07:53:00,
2013-01-08 23:58:00,50.0,47.7,30.05,SSW,203,1.8,2.7,92,0.00,,,0.22,WUHU216HW,2013-01-09 07:58:00,